星链-11743 (STARLINK-11743)

导读 | 星芒AI

STARLINK-11743 是 SpaceX Starlink 卫星互联网项目中的第 11743 颗卫星,属于低轨卫星群,旨在为全球提供高速互联网服务。该卫星于近期发射,运行在约 550 公里的轨道高度,具备先进的通信技术,支持宽带连接。Starlink 项目致力于改善偏远地区的网络覆盖,推动全球数字包容。该卫星与其他 Starlink 卫星协同工作,提升网络稳定性和数据传输效率。

基本信息
目录编号:
64379
目录名称:
STARLINK-11743
国际标识:
2025-127K
轨道中心:
EARTH
卫星名称:
星链-11743
卫星全名:
星链-11743 (STARLINK-11743)
卫星状态:
在轨 (已飞行143 天)
发射日期:
2025-06-13 UTC
国别 :
美国 (US)
星等 :
--
轨道信息
数据来源 国际轨道数据
星历时间: 2025-11-02T13:44:24+0800
20小时前
查看轨道信息
半长轴: 6734.107km
偏心率: 0.0001984
轨道倾角: 42.998°
近地点辐角 302.895°
升交点赤经 133.131°
平近点角 57.173°
近地点: 354.635km
远地点: 357.309km
周期: 91.660分钟
每日圈数: 15.710238
详细信息
固有亮度:
5
最大亮度:
2.5
卫星平台:
Starlink V1.0
覆盖范围:
全球
运营商:
太空探索技术公司
运营商所在国:
美国
制造商(研发单位):
太空探索技术公司
制造商所在国:
美国
使用方式:
暂无
卫星简介
Starlink 计划是 SpaceX 推出的全球卫星互联网项目,通过发射低轨道卫星,为全球尤其是偏远地区提供高速、低延迟的互联网服务。自 2019 年起,Starlink 已部署数千颗卫星,旨在缩小全球数字鸿沟,推动互联网普及。该项目还为军事、航空等行业提供通信支持,带来广泛经济效益。
2D轨道图
3D轨道图
轨道高度分析图
轨道倾角分析图
轨道综合分析图
查看轨道综合分析图